+ View the NASA Portal
+ Center for Near-Earth Object Studies
IMPORTANT:
The SSD Announcement email list is now available. Major changes are coming in the near future, including possible hostname and/or URL changes. To be notified of such changes, subscribe to this email list.
Please visit
this page
for more details.
Don't show this message again
JPL Small-Body Database Browser
Search:
[
help
]
214859 (2006 YN7)
Classification:
Main-belt Asteroid
SPK-ID:
2214859
[
Ephemeris
|
Orbit Diagram
|
Orbital Elements
|
Mission Design
|
Physical Parameters
|
Discovery Circumstances
|
Close-Approach Data
]
[ show orbit diagram ]
Orbital Elements at Epoch 2458600.5 (2019-Apr-27.0) TDB
Reference:
JPL 18
(heliocentric ecliptic J2000)
Element
Value
Uncertainty (1-sigma)
Units
e
.1767244876280155
6.4647e-08
a
2.578915029727599
1.6762e-08
au
q
2.123157592462801
1.7231e-07
au
i
9.315938827258917
6.6092e-06
deg
node
196.5367331538863
2.4662e-05
deg
peri
182.652376468021
2.7761e-05
deg
M
39.10796245660757
1.0863e-05
deg
t
p
2458436.170071794797
(2018-Nov-13.67007179)
4.5558e-05
TDB
period
1512.704074509457
4.14
1.4748e-05
4.038e-08
d
yr
n
.2379844188075858
2.3202e-09
deg/d
Q
3.034672466992398
1.9724e-08
au
Orbit Determination Parameters
# obs. used (total)
459
data-arc span
21306 days (58.33 yr)
first obs. used
1960-09-24
last obs. used
2019-01-24
planetary ephem.
DE431
SB-pert. ephem.
SB431-N16
condition code
0
norm. resid. RMS
.53303
source
ORB
producer
Otto Matic
solution date
2019-Jul-14 08:44:05
Additional Information
Earth MOID
= 1.12461 au
Jupiter MOID
= 2.42226 au
T_jup
= 3.385
[ show covariance matrix ]
[
Ephemeris
|
Orbit Diagram
|
Orbital Elements
|
Mission Design
|
Physical Parameters
|
Discovery Circumstances
|
Close-Approach Data
]
Physical Parameter Table
Parameter
Symbol
Value
Units
Sigma
Reference
Notes
absolute magnitude
H
16.3
n/a
MPO454542
214859 (2006 YN7)
Discovered 2006-Dec-20 by NEAT at Palomar
Reference:
20090509/Numbers.arc
Last Updated:
2009-05-11
[ show close-approach data ]
Alternate Designations
2006 YN7
= 6204 P-L
[
Ephemeris
|
Orbit Diagram
|
Orbital Elements
|
Mission Design
|
Physical Parameters
|
Discovery Circumstances
|
Close-Approach Data
]
2019-Dec-13 06:30 UT
(server date/time)
Site Manager:
Ryan S. Park
Webmaster
:
Alan B. Chamberlin